Duluth, MN

8:01 AM CDT on June 22, 2017 (GMT -0500)
Duluth International

Weather History for KDLH - June, 2013

Change the Weather History Date:

Saturday, June 8, 2013

  Actual Average Record
Temperature  
Mean Temperature 60 °F 58 °F  
Max Temperature 71 °F 69 °F 88 °F (1959)
Min Temperature 48 °F 47 °F 33 °F (1885)
Degree Days  
Heating Degree Days 5 8  
Month to date heating degree days 90 68  
Since 1 June heating degree days 90 68  
Since 1 July heating degree days 9310 9333  
Cooling Degree Days 0 0  
Month to date cooling degree days 0 0  
Year to date cooling degree days 1 4  
Since 1 June cooling degree days 0 0  
Growing Degree Days 10 (Base 50)    
Moisture  
Dew Point 42 °F    
Average Humidity 52    
Maximum Humidity 63    
Minimum Humidity 40    
Precipitation  
Precipitation 0.00 in 0.13 in 1.87 in (1873)
Month to date precipitation 0.47 0.98  
Year to date precipitation 13.81 9.90  
Snow  
Snow 0.00 in 0.00 in T in (1990)
Month to date snowfall 0.0 0.0  
Since 1 June snowfall 0.0 0.0  
Since 1 July snowfall 129.4 86.1  
Snow Depth 0.00 in    
Sea Level Pressure  
Sea Level Pressure 29.97 in    
Wind  
Wind Speed 9 mph (East)    
Max Wind Speed 16 mph    
Max Gust Speed 24 mph    
Visibility 10 miles    
Events      
T = Trace of Precipitation, MM = Missing Value Source: NWS Daily Summary

Daily Weather History Graph

Daily Weather History Graph

Search for Another Location

Airport or City:

Trip Planner

Search our weather history database for the weather conditions in past years. The results will help you decide how hot, cold, wet, or windy it might be!

Date:

Astronomy

Jun. 08, 2013 Rise Set
Actual Time 5:14 AM CDT 9:01 PM CDT
Civil Twilight 4:35 AM CDT 9:40 PM CDT
Nautical Twilight 3:42 AM CDT 10:33 PM CDT
Astronomical Twilight 2:27 AM CDT 11:49 PM CDT
Moon 5:26 AM CDT (6/8) 9:00 PM CDT (6/8)
Length of Visible Light 17h 04m
Length of Day
15h 46m
New Moon, 0% of the Moon is Illuminated
Jun 8
New Moon
Jun 16
First Quarter
Jun 23
Full
Jun 29
Last Quarter
Jul 8
New

Hourly Weather History & Observations

Time (CDT) Temp. Dew Point Humidity Pressure Visibility Wind Dir Wind Speed Gust Speed Precip Events Conditions
12:55 AM 53.1 °F 39.9 °F 61% 29.96 in 10.0 mi Calm Calm - N/A   Mostly Cloudy
1:55 AM 51.1 °F 39.0 °F 63% 29.96 in 10.0 mi NE 3.5 mph - N/A   Mostly Cloudy
2:55 AM 52.0 °F 39.9 °F 63% 29.96 in 10.0 mi ENE 5.8 mph - N/A   Mostly Cloudy
3:55 AM 50.0 °F 35.1 °F 57% 29.95 in 10.0 mi East 6.9 mph - N/A   Partly Cloudy
4:55 AM 48.9 °F 32.0 °F 52% 29.96 in 10.0 mi East 5.8 mph - N/A   Partly Cloudy
5:55 AM 48.9 °F 33.1 °F 54% 29.97 in 10.0 mi East 4.6 mph - N/A   Scattered Clouds
6:55 AM 55.0 °F 36.0 °F 49% 29.97 in 10.0 mi East 5.8 mph - N/A   Partly Cloudy
7:55 AM 59.0 °F 43.0 °F 55% 29.97 in 10.0 mi East 9.2 mph - N/A   Clear
8:55 AM 63.0 °F 45.0 °F 52% 29.97 in 10.0 mi ESE 8.1 mph - N/A   Clear
9:55 AM 64.0 °F 45.0 °F 50% 29.98 in 10.0 mi SE 9.2 mph - N/A   Partly Cloudy
10:55 AM 64.9 °F 46.0 °F 50% 29.97 in 10.0 mi East 6.9 mph - N/A   Scattered Clouds
11:55 AM 66.9 °F 46.0 °F 47% 29.96 in 10.0 mi SE 10.4 mph - N/A   Scattered Clouds
12:55 PM 69.1 °F 46.0 °F 44% 29.96 in 10.0 mi ESE 11.5 mph - N/A   Scattered Clouds
1:55 PM 70.0 °F 46.0 °F 42% 29.95 in 10.0 mi East 9.2 mph 18.4 mph N/A   Scattered Clouds
2:55 PM 71.1 °F 48.0 °F 44% 29.94 in 10.0 mi East 10.4 mph - N/A   Partly Cloudy
3:55 PM 69.1 °F 46.0 °F 44% 29.95 in 10.0 mi ESE 11.5 mph - N/A   Partly Cloudy
4:55 PM 69.1 °F 45.0 °F 42% 29.97 in 10.0 mi ESE 13.8 mph - N/A   Partly Cloudy
5:55 PM 69.1 °F 45.0 °F 42% 29.97 in 10.0 mi East 12.7 mph - N/A   Scattered Clouds
6:55 PM 66.0 °F 43.0 °F 43% 29.97 in 10.0 mi East 12.7 mph - N/A   Mostly Cloudy
7:55 PM 64.9 °F 44.1 °F 47% 29.97 in 10.0 mi East 10.4 mph - N/A   Overcast
8:55 PM 61.0 °F 42.1 °F 50% 29.97 in 10.0 mi East 10.4 mph - N/A   Scattered Clouds
9:55 PM 57.9 °F 41.0 °F 53% 29.99 in 10.0 mi East 10.4 mph - N/A   Partly Cloudy
10:55 PM 55.9 °F 39.9 °F 55% 29.99 in 10.0 mi East 10.4 mph - N/A   Partly Cloudy
11:55 PM 55.0 °F 39.9 °F 57% 29.99 in 10.0 mi East 6.9 mph - N/A   Clear